N6564S KFRG-CYRC

Flight info

Callsign N6564S
Flight time N/A
Altitude 19000
Route BIZEX Q133 PBERG DCT CATOG Q824 PENTU
Aircraft B58T/L-SDFRY/C

Departure

Time 2026-05-03 22:08
Airport Republic Airport (KFRG)

Arrival

Time N/A
Airport Chicoutimi/Saint-Honoré Aerodrome (CYRC)
Time Latitude Longitude Altitude Speed Heading
2026-05-03 21:33 40.72902 -73.41710 78 ft 0 kts 45°
2026-05-03 21:51 40.72905 -73.41704 78 ft 3 kts 53°
2026-05-03 21:51 40.72932 -73.41698 81 ft 4 kts 347°
2026-05-03 21:51 40.72955 -73.41692 79 ft 4 kts 44°
2026-05-03 21:51 40.72952 -73.41646 71 ft 8 kts 132°
2026-05-03 21:52 40.72907 -73.41582 78 ft 11 kts 132°
2026-05-03 21:52 40.72857 -73.41508 80 ft 11 kts 131°
2026-05-03 21:52 40.72799 -73.41426 81 ft 14 kts 133°
2026-05-03 21:52 40.72732 -73.41327 78 ft 17 kts 133°
2026-05-03 21:53 40.72656 -73.41217 79 ft 16 kts 130°
2026-05-03 21:53 40.72576 -73.41101 74 ft 19 kts 132°
2026-05-03 21:53 40.72484 -73.40969 73 ft 20 kts 131°
2026-05-03 21:53 40.72387 -73.40830 69 ft 21 kts 130°
2026-05-03 21:54 40.72295 -73.40695 70 ft 18 kts 131°
2026-05-03 21:54 40.72212 -73.40575 67 ft 17 kts 133°
2026-05-03 21:54 40.72147 -73.40531 66 ft 4 kts 163°
2026-05-03 21:54 40.72142 -73.40513 71 ft 0 kts 18°
2026-05-03 21:55 40.72144 -73.40513 71 ft 0 kts 352°
2026-05-03 22:06 40.72152 -73.40497 70 ft 6 kts 106°
2026-05-03 22:06 40.72149 -73.40431 66 ft 9 kts 46°
2026-05-03 22:06 40.72194 -73.40378 71 ft 5 kts 49°
2026-05-03 22:07 40.72228 -73.40386 67 ft 7 kts 317°
2026-05-03 22:07 40.72373 -73.40599 68 ft 70 kts 311°
2026-05-03 22:07 40.72827 -73.41265 115 ft 116 kts 309°
2026-05-03 22:07 40.73335 -73.42167 387 ft 128 kts 288°
2026-05-03 22:08 40.73840 -73.43177 657 ft 135 kts 317°
2026-05-03 22:08 40.74665 -73.43902 909 ft 145 kts 336°
2026-05-03 22:08 40.75590 -73.44270 1326 ft 146 kts 346°
2026-05-03 22:08 40.76627 -73.44487 1613 ft 151 kts 345°
2026-05-03 22:09 40.77684 -73.44751 1884 ft 155 kts 351°
2026-05-03 22:09 40.78745 -73.44805 2283 ft 151 kts 354°
2026-05-03 22:09 40.79793 -73.44787 2666 ft 145 kts 354°
2026-05-03 22:10 40.81669 -73.45139 3414 ft 133 kts 336°
2026-05-03 22:10 40.82565 -73.45444 3785 ft 132 kts 339°
2026-05-03 22:10 40.83461 -73.45707 4160 ft 131 kts 339°
2026-05-03 22:10 40.84338 -73.45952 4528 ft 126 kts 339°
2026-05-03 22:11 40.85176 -73.46176 4891 ft 119 kts 339°
2026-05-03 22:11 40.85971 -73.46404 5253 ft 116 kts 339°
2026-05-03 22:11 40.86751 -73.46618 5609 ft 114 kts 339°
2026-05-03 22:11 40.87532 -73.46830 5979 ft 113 kts 339°
2026-05-03 22:12 40.88292 -73.47037 6346 ft 112 kts 339°
2026-05-03 22:12 40.89052 -73.47245 6716 ft 112 kts 339°
2026-05-03 22:12 40.89825 -73.47456 7095 ft 112 kts 339°
2026-05-03 22:12 40.90578 -73.47662 7463 ft 111 kts 339°
2026-05-03 22:13 40.91348 -73.47873 7779 ft 115 kts 339°
2026-05-03 22:13 40.92134 -73.48090 8083 ft 117 kts 339°
2026-05-03 22:13 40.92939 -73.48310 8387 ft 119 kts 339°
2026-05-03 22:13 40.93744 -73.48530 8686 ft 121 kts 340°
2026-05-03 22:14 40.94589 -73.48761 8996 ft 123 kts 340°
2026-05-03 22:14 40.95426 -73.48991 9299 ft 124 kts 340°
2026-05-03 22:14 40.96282 -73.49224 9601 ft 125 kts 340°
2026-05-03 22:14 40.97137 -73.49459 9901 ft 126 kts 340°
2026-05-03 22:15 40.97990 -73.49691 10198 ft 127 kts 340°
2026-05-03 22:15 40.98874 -73.49934 10504 ft 128 kts 340°
2026-05-03 22:15 40.99742 -73.50171 10800 ft 129 kts 340°
2026-05-03 22:15 41.00626 -73.50414 11099 ft 130 kts 340°
2026-05-03 22:16 41.01515 -73.50657 11399 ft 131 kts 340°
2026-05-03 22:16 41.02397 -73.50899 11695 ft 132 kts 340°
2026-05-03 22:16 41.03300 -73.51147 12000 ft 132 kts 340°
2026-05-03 22:16 41.04202 -73.51394 12301 ft 133 kts 340°
2026-05-03 22:17 41.05110 -73.51644 12606 ft 133 kts 340°
2026-05-03 22:17 41.06024 -73.51894 12906 ft 135 kts 340°
2026-05-03 22:17 41.06948 -73.52151 13213 ft 136 kts 339°
2026-05-03 22:17 41.07880 -73.52418 13507 ft 136 kts 339°
2026-05-03 22:18 41.08807 -73.52687 13808 ft 137 kts 339°
2026-05-03 22:18 41.09737 -73.52963 14107 ft 137 kts 339°
2026-05-03 22:18 41.10666 -73.53243 14407 ft 137 kts 338°
2026-05-03 22:18 41.11598 -73.53530 14710 ft 137 kts 338°
2026-05-03 22:19 41.12540 -73.53826 15012 ft 138 kts 338°
2026-05-03 22:19 41.13464 -73.54122 15314 ft 138 kts 338°
2026-05-03 22:19 41.14385 -73.54422 15607 ft 137 kts 338°
2026-05-03 22:19 41.15313 -73.54730 15909 ft 137 kts 337°
2026-05-03 22:20 41.16251 -73.55046 16212 ft 137 kts 337°
2026-05-03 22:20 41.17165 -73.55359 16504 ft 138 kts 336°
2026-05-03 22:20 41.18093 -73.55684 16802 ft 138 kts 336°
2026-05-03 22:20 41.19015 -73.56014 17102 ft 138 kts 336°
2026-05-03 22:21 41.19950 -73.56356 17399 ft 139 kts 336°
2026-05-03 22:21 41.20861 -73.56696 17693 ft 138 kts 335°
2026-05-03 22:21 41.21794 -73.57049 17997 ft 138 kts 335°
2026-05-03 22:21 41.22715 -73.57405 18298 ft 138 kts 335°
2026-05-03 22:22 41.23635 -73.57768 18594 ft 137 kts 335°
2026-05-03 22:22 41.24546 -73.58132 18892 ft 137 kts 334°
2026-05-03 22:22 41.25497 -73.58526 19002 ft 151 kts 334°
2026-05-03 22:22 41.26540 -73.58984 19012 ft 165 kts 334°
2026-05-03 22:23 41.27667 -73.59501 19013 ft 177 kts 334°
2026-05-03 22:23 41.28858 -73.60062 19012 ft 185 kts 334°
2026-05-03 22:23 41.30096 -73.60656 19012 ft 192 kts 334°
2026-05-03 22:23 41.31364 -73.61274 19008 ft 197 kts 334°
2026-05-03 22:24 41.32652 -73.61907 19011 ft 200 kts 334°
2026-05-03 22:24 41.33973 -73.62558 19009 ft 203 kts 335°
2026-05-03 22:24 41.35409 -73.62784 19009 ft 214 kts 353°
2026-05-03 22:24 41.36924 -73.62672 19009 ft 217 kts 355°
2026-05-03 22:25 41.38418 -73.62523 19007 ft 218 kts 356°
2026-05-03 22:25 41.39904 -73.62379 19009 ft 219 kts 356°
2026-05-03 22:25 41.41450 -73.62189 19008 ft 221 kts 358°
2026-05-03 22:25 41.42976 -73.61917 19006 ft 222 kts 359°
2026-05-03 22:26 41.44517 -73.61639 18920 ft 225 kts 359°
2026-05-03 22:26 41.46056 -73.61371 18921 ft 224 kts 359°
2026-05-03 22:26 41.47604 -73.61107 18923 ft 222 kts 359°
2026-05-03 22:26 41.49117 -73.60848 18922 ft 219 kts 359°
2026-05-03 22:27 41.50627 -73.60588 18916 ft 216 kts 359°
2026-05-03 22:27 41.52102 -73.60334 18911 ft 214 kts 359°
2026-05-03 22:27 41.53576 -73.60082 18906 ft 212 kts 359°
2026-05-03 22:27 41.55042 -73.59830 18904 ft 212 kts 359°
2026-05-03 22:28 41.56499 -73.59578 18901 ft 210 kts 359°
2026-05-03 22:28 41.57940 -73.59331 18899 ft 209 kts 359°
2026-05-03 22:28 41.59388 -73.59082 18895 ft 209 kts 358°
2026-05-03 22:28 41.60827 -73.58833 18896 ft 208 kts 358°
2026-05-03 22:29 41.62259 -73.58587 18895 ft 207 kts 358°
2026-05-03 22:29 41.63684 -73.58340 18897 ft 206 kts 358°
2026-05-03 22:29 41.65108 -73.58095 18897 ft 207 kts 358°
2026-05-03 22:29 41.66529 -73.57851 18897 ft 207 kts 359°
2026-05-03 22:30 41.67951 -73.57605 18898 ft 207 kts 359°
2026-05-03 22:30 41.68912 -73.57438 18898 ft 208 kts 359°
2026-05-03 22:30 41.70814 -73.57110 18899 ft 208 kts 359°
2026-05-03 22:30 41.71784 -73.56942 18899 ft 208 kts 359°
2026-05-03 22:31 41.73219 -73.56693 18901 ft 208 kts 359°
2026-05-03 22:31 41.74660 -73.56444 18900 ft 209 kts 359°
2026-05-03 22:31 41.76117 -73.56191 18901 ft 209 kts 359°
2026-05-03 22:31 41.77557 -73.55942 18902 ft 209 kts 359°
2026-05-03 22:32 41.78999 -73.55692 18901 ft 208 kts 359°
2026-05-03 22:32 41.80431 -73.55434 18902 ft 210 kts
2026-05-03 22:32 41.81781 -73.54514 18901 ft 230 kts 32°
2026-05-03 22:32 41.82924 -73.53016 18905 ft 231 kts 33°
2026-05-03 22:33 41.84163 -73.51676 18908 ft 224 kts 24°
2026-05-03 22:33 41.85495 -73.50675 18911 ft 218 kts 14°
2026-05-03 22:33 41.86917 -73.50069 18902 ft 210 kts
2026-05-03 22:33 41.88352 -73.49856 18904 ft 206 kts 355°
2026-05-03 22:34 41.89784 -73.49714 18902 ft 207 kts 356°
2026-05-03 22:34 41.91240 -73.49525 18904 ft 207 kts 357°
2026-05-03 22:34 41.92651 -73.49327 18906 ft 208 kts 357°
2026-05-03 22:34 41.94103 -73.49125 18904 ft 209 kts 357°
2026-05-03 22:35 41.95551 -73.48927 18905 ft 209 kts 357°
2026-05-03 22:35 41.96999 -73.48728 18905 ft 209 kts 357°
2026-05-03 22:35 41.98444 -73.48529 18904 ft 209 kts 357°
2026-05-03 22:35 41.99895 -73.48329 18904 ft 208 kts 357°
2026-05-03 22:36 42.01329 -73.48132 18903 ft 208 kts 358°
2026-05-03 22:36 42.02777 -73.47932 18904 ft 208 kts 358°
2026-05-03 22:36 42.04180 -73.47737 18903 ft 208 kts 358°
2026-05-03 22:36 42.05661 -73.47534 18894 ft 208 kts 358°
2026-05-03 22:37 42.07078 -73.47338 18892 ft 207 kts 358°
2026-05-03 22:37 42.08506 -73.47142 18890 ft 207 kts 358°
2026-05-03 22:37 42.09948 -73.46943 18887 ft 208 kts 358°
2026-05-03 22:37 42.11387 -73.46744 18888 ft 208 kts 358°
2026-05-03 22:38 42.12822 -73.46546 18888 ft 209 kts 358°
2026-05-03 22:38 42.14278 -73.46344 18887 ft 208 kts 358°
2026-05-03 22:38 42.15712 -73.46144 18885 ft 208 kts 358°
2026-05-03 22:38 42.17157 -73.45942 18885 ft 207 kts 358°
2026-05-03 22:39 42.18589 -73.45748 18885 ft 207 kts 358°
2026-05-03 22:39 42.20027 -73.45549 18884 ft 208 kts 358°
2026-05-03 22:39 42.21465 -73.45349 18884 ft 207 kts 358°
2026-05-03 22:39 42.22883 -73.45153 18884 ft 207 kts 358°
2026-05-03 22:40 42.24317 -73.44953 18885 ft 207 kts 358°
2026-05-03 22:40 42.25753 -73.44754 18886 ft 207 kts 358°
2026-05-03 22:40 42.27189 -73.44555 18885 ft 208 kts 358°
2026-05-03 22:40 42.28627 -73.44354 18885 ft 208 kts 358°
2026-05-03 22:41 42.30020 -73.44160 18885 ft 207 kts 358°
2026-05-03 22:41 42.31503 -73.43955 18884 ft 208 kts 358°
2026-05-03 22:41 42.32916 -73.43758 18885 ft 208 kts 358°
2026-05-03 22:41 42.34365 -73.43557 18871 ft 208 kts 358°
2026-05-03 22:42 42.35809 -73.43356 18874 ft 208 kts 358°
2026-05-03 22:42 42.37243 -73.43157 18876 ft 208 kts 358°
2026-05-03 22:42 42.38694 -73.42953 18875 ft 208 kts 358°
2026-05-03 22:42 42.40128 -73.42752 18875 ft 207 kts 358°
2026-05-03 22:43 42.41554 -73.42554 18876 ft 207 kts 358°
2026-05-03 22:43 42.42996 -73.42354 18877 ft 208 kts 358°
2026-05-03 22:43 42.44452 -73.42151 18878 ft 209 kts 358°
2026-05-03 22:43 42.45899 -73.41947 18875 ft 209 kts 358°
2026-05-03 22:44 42.47350 -73.41744 18874 ft 209 kts 358°
2026-05-03 22:44 42.48793 -73.41543 18874 ft 208 kts 358°
2026-05-03 22:44 42.50234 -73.41341 18875 ft 208 kts 358°
2026-05-03 22:44 42.51679 -73.41140 18873 ft 209 kts 358°
2026-05-03 22:45 42.53103 -73.40940 18875 ft 209 kts 358°
2026-05-03 22:45 42.54571 -73.40734 18873 ft 209 kts 358°
2026-05-03 22:45 42.56010 -73.40532 18874 ft 209 kts 358°
2026-05-03 22:45 42.57451 -73.40330 18874 ft 209 kts 358°
2026-05-03 22:46 42.58888 -73.40129 18875 ft 209 kts 358°
2026-05-03 22:46 42.60325 -73.39927 18874 ft 209 kts 358°
2026-05-03 22:46 42.61769 -73.39725 18872 ft 209 kts 358°
2026-05-03 22:46 42.63213 -73.39521 18873 ft 208 kts 358°
2026-05-03 22:47 42.64658 -73.39319 18872 ft 208 kts 358°
2026-05-03 22:47 42.66095 -73.39116 18871 ft 208 kts 358°
2026-05-03 22:47 42.67526 -73.38916 18872 ft 208 kts 358°
2026-05-03 22:47 42.68977 -73.38712 18870 ft 208 kts 358°
2026-05-03 22:48 42.70420 -73.38508 18871 ft 208 kts 358°
2026-05-03 22:48 42.71848 -73.38307 18870 ft 207 kts 358°
2026-05-03 22:48 42.73274 -73.38107 18869 ft 207 kts 358°
2026-05-03 22:48 42.74690 -73.37906 18870 ft 207 kts 359°
2026-05-03 22:49 42.76148 -73.37700 18871 ft 207 kts 359°
2026-05-03 22:49 42.77584 -73.37498 18871 ft 207 kts 359°
2026-05-03 22:49 42.79000 -73.37298 18872 ft 207 kts 359°
2026-05-03 22:49 42.80454 -73.37092 18871 ft 208 kts 359°
2026-05-03 22:50 42.81893 -73.36889 18874 ft 208 kts 359°
2026-05-03 22:50 42.83322 -73.36687 18875 ft 209 kts 359°
2026-05-03 22:50 42.84784 -73.36481 18874 ft 209 kts 359°
2026-05-03 22:50 42.86224 -73.36276 18874 ft 208 kts 359°
2026-05-03 22:51 42.87668 -73.36071 18874 ft 208 kts 359°
2026-05-03 22:51 42.89109 -73.35868 18874 ft 208 kts 359°
2026-05-03 22:51 42.90547 -73.35664 18872 ft 208 kts 359°
2026-05-03 22:51 42.91988 -73.35460 18875 ft 208 kts 359°
2026-05-03 22:52 42.93427 -73.35256 18873 ft 208 kts 359°
2026-05-03 22:52 42.94864 -73.35052 18874 ft 207 kts 359°
2026-05-03 22:52 42.96267 -73.34852 18872 ft 208 kts 359°
2026-05-03 22:52 42.97735 -73.34644 18873 ft 208 kts 359°
2026-05-03 22:53 42.99157 -73.34443 18871 ft 207 kts 358°
2026-05-03 22:53 43.00597 -73.34492 18874 ft 203 kts 349°
2026-05-03 22:53 43.01992 -73.34633 18875 ft 204 kts 350°
2026-05-03 22:53 43.03410 -73.34760 18875 ft 204 kts 350°
2026-05-03 22:54 43.04830 -73.34886 18878 ft 205 kts 350°
2026-05-03 22:54 43.06257 -73.35012 18877 ft 205 kts 350°
2026-05-03 22:54 43.07681 -73.35138 18877 ft 205 kts 350°
2026-05-03 22:54 43.09099 -73.35265 18876 ft 204 kts 350°
2026-05-03 22:55 43.10511 -73.35393 18875 ft 204 kts 350°
2026-05-03 22:55 43.11928 -73.35519 18875 ft 204 kts 350°
2026-05-03 22:55 43.13344 -73.35646 18876 ft 204 kts 350°
2026-05-03 22:55 43.14763 -73.35774 18876 ft 204 kts 350°
2026-05-03 22:56 43.16180 -73.35901 18877 ft 204 kts 351°
2026-05-03 22:56 43.17603 -73.36027 18876 ft 204 kts 351°
2026-05-03 22:56 43.19022 -73.36154 18875 ft 204 kts 350°
2026-05-03 22:56 43.20438 -73.36282 18875 ft 204 kts 350°
2026-05-03 22:57 43.21847 -73.36408 18876 ft 203 kts 350°
2026-05-03 22:57 43.23265 -73.36536 18872 ft 204 kts 351°
2026-05-03 22:57 43.24679 -73.36662 18876 ft 204 kts 350°
2026-05-03 22:57 43.26086 -73.36789 18876 ft 204 kts 351°
2026-05-03 22:58 43.27503 -73.36917 18875 ft 204 kts 351°
2026-05-03 22:58 43.28908 -73.37043 18876 ft 204 kts 351°
2026-05-03 22:58 43.30303 -73.37169 18877 ft 204 kts 351°
2026-05-03 22:58 43.31749 -73.37299 18878 ft 204 kts 351°
2026-05-03 22:59 43.33155 -73.37426 18878 ft 204 kts 351°
2026-05-03 22:59 43.34582 -73.37554 18864 ft 205 kts 351°
2026-05-03 22:59 43.35982 -73.37680 18867 ft 205 kts 351°
2026-05-03 22:59 43.37405 -73.37809 18867 ft 205 kts 351°
2026-05-03 23:00 43.38826 -73.37937 18865 ft 205 kts 351°
2026-05-03 23:00 43.40247 -73.38065 18867 ft 204 kts 351°
2026-05-03 23:00 43.41661 -73.38193 18866 ft 204 kts 351°
2026-05-03 23:00 43.43082 -73.38322 18865 ft 204 kts 351°
2026-05-03 23:01 43.44500 -73.38450 18864 ft 203 kts 351°
2026-05-03 23:01 43.45910 -73.38577 18864 ft 204 kts 351°
2026-05-03 23:01 43.47326 -73.38706 18863 ft 204 kts 351°
2026-05-03 23:01 43.48737 -73.38834 18865 ft 203 kts 351°
2026-05-03 23:02 43.50151 -73.38962 18866 ft 203 kts 351°
2026-05-03 23:02 43.51566 -73.39090 18865 ft 203 kts 351°
2026-05-03 23:02 43.52977 -73.39217 18865 ft 203 kts 351°
2026-05-03 23:02 43.54372 -73.39345 18866 ft 203 kts 351°
2026-05-03 23:03 43.55779 -73.39472 18865 ft 203 kts 351°
2026-05-03 23:03 43.57195 -73.39601 18864 ft 203 kts 351°
2026-05-03 23:03 43.58604 -73.39730 18864 ft 203 kts 351°
2026-05-03 23:03 43.59863 -73.39844 18864 ft 203 kts 351°
2026-05-03 23:04 43.61272 -73.39972 18862 ft 202 kts 351°
2026-05-03 23:04 43.62675 -73.40099 18866 ft 203 kts 351°
2026-05-03 23:04 43.64084 -73.40228 18865 ft 203 kts 351°
2026-05-03 23:04 43.65495 -73.40357 18864 ft 203 kts 351°
2026-05-03 23:05 43.66904 -73.40485 18866 ft 203 kts 351°
2026-05-03 23:05 43.68323 -73.40614 18865 ft 204 kts 351°
2026-05-03 23:05 43.69735 -73.40744 18863 ft 203 kts 351°
2026-05-03 23:05 43.71126 -73.40874 18864 ft 202 kts 350°
2026-05-03 23:06 43.72530 -73.41039 18866 ft 203 kts 350°
2026-05-03 23:06 43.73935 -73.41207 18863 ft 202 kts 350°
2026-05-03 23:06 43.75337 -73.41365 18864 ft 202 kts 350°
2026-05-03 23:06 43.76739 -73.41522 18865 ft 202 kts 350°
2026-05-03 23:07 43.78143 -73.41682 18865 ft 202 kts 350°
2026-05-03 23:07 43.79545 -73.41841 18865 ft 202 kts 350°
2026-05-03 23:07 43.80949 -73.41999 18867 ft 202 kts 350°
2026-05-03 23:07 43.82347 -73.42159 18866 ft 202 kts 350°
2026-05-03 23:08 43.83284 -73.42267 18866 ft 203 kts 350°
2026-05-03 23:08 43.84690 -73.42425 18867 ft 203 kts 350°
2026-05-03 23:08 43.86098 -73.42585 18866 ft 202 kts 350°
2026-05-03 23:08 43.87476 -73.42741 18867 ft 203 kts 350°
2026-05-03 23:09 43.88909 -73.42905 18866 ft 202 kts 350°
2026-05-03 23:09 43.90316 -73.43064 18865 ft 202 kts 350°
2026-05-03 23:09 43.91718 -73.43225 18863 ft 202 kts 350°
2026-05-03 23:09 43.93113 -73.43384 18864 ft 202 kts 350°
2026-05-03 23:10 43.94517 -73.43544 18865 ft 202 kts 350°
2026-05-03 23:10 43.95921 -73.43704 18864 ft 202 kts 350°
2026-05-03 23:10 43.97325 -73.43863 18865 ft 202 kts 350°
2026-05-03 23:10 43.98728 -73.44024 18866 ft 202 kts 350°
2026-05-03 23:11 44.00132 -73.44185 18865 ft 202 kts 350°
2026-05-03 23:11 44.01534 -73.44345 18864 ft 202 kts 351°
2026-05-03 23:11 44.02938 -73.44505 18863 ft 203 kts 351°
2026-05-03 23:11 44.04345 -73.44666 18863 ft 203 kts 351°
2026-05-03 23:12 44.05752 -73.44827 18864 ft 203 kts 351°
2026-05-03 23:12 44.07157 -73.44988 18864 ft 203 kts 351°
2026-05-03 23:12 44.08564 -73.45149 18864 ft 203 kts 351°
2026-05-03 23:12 44.09971 -73.45311 18864 ft 203 kts 351°
2026-05-03 23:13 44.11373 -73.45472 18863 ft 202 kts 351°
2026-05-03 23:13 44.12779 -73.45633 18863 ft 202 kts 351°
2026-05-03 23:13 44.14175 -73.45793 18863 ft 202 kts 351°
2026-05-03 23:13 44.15584 -73.45955 18863 ft 202 kts 351°
2026-05-03 23:14 44.16993 -73.46116 18862 ft 202 kts 350°
2026-05-03 23:14 44.18399 -73.46278 18862 ft 202 kts 351°
2026-05-03 23:14 44.19776 -73.46436 18862 ft 202 kts 351°
2026-05-03 23:14 44.21207 -73.46601 18862 ft 203 kts 351°
2026-05-03 23:15 44.22593 -73.46761 18863 ft 203 kts 351°
2026-05-03 23:15 44.24003 -73.46923 18863 ft 203 kts 351°
2026-05-03 23:15 44.25384 -73.47082 18863 ft 203 kts 351°
2026-05-03 23:15 44.26822 -73.47248 18864 ft 203 kts 351°
2026-05-03 23:16 44.28233 -73.47411 18863 ft 203 kts 351°
2026-05-03 23:16 44.29643 -73.47573 18866 ft 203 kts 351°
2026-05-03 23:16 44.31011 -73.47731 18866 ft 204 kts 351°
2026-05-03 23:16 44.32456 -73.47897 18864 ft 204 kts 351°
2026-05-03 23:17 44.33874 -73.48062 18865 ft 204 kts 351°
2026-05-03 23:17 44.35294 -73.48226 18865 ft 205 kts 351°
2026-05-03 23:17 44.36715 -73.48390 18855 ft 204 kts 351°
2026-05-03 23:17 44.38132 -73.48555 18855 ft 204 kts 351°
2026-05-03 23:18 44.39548 -73.48719 18854 ft 204 kts 351°
2026-05-03 23:18 44.40963 -73.48881 18858 ft 204 kts 351°
2026-05-03 23:18 44.42381 -73.49045 18858 ft 205 kts 351°
2026-05-03 23:18 44.43804 -73.49212 18857 ft 205 kts 351°
2026-05-03 23:19 44.45229 -73.49377 18858 ft 205 kts 351°
2026-05-03 23:19 44.46639 -73.49541 18857 ft 205 kts 351°
2026-05-03 23:19 44.48051 -73.49704 18856 ft 205 kts 351°
2026-05-03 23:19 44.49483 -73.49871 18856 ft 206 kts 351°
2026-05-03 23:20 44.50904 -73.50036 18856 ft 205 kts 351°
2026-05-03 23:20 44.52333 -73.50201 18856 ft 205 kts 351°
2026-05-03 23:20 44.53760 -73.50367 18856 ft 205 kts 351°
2026-05-03 23:20 44.55184 -73.50533 18855 ft 205 kts 351°
2026-05-03 23:21 44.56607 -73.50700 18855 ft 205 kts 351°
2026-05-03 23:21 44.58032 -73.50865 18855 ft 205 kts 351°
2026-05-03 23:21 44.59451 -73.51031 18856 ft 205 kts 351°
2026-05-03 23:21 44.60882 -73.51198 18855 ft 206 kts 351°
2026-05-03 23:22 44.63736 -73.51531 18855 ft 206 kts 351°
2026-05-03 23:22 44.65166 -73.51699 18855 ft 206 kts 351°
2026-05-03 23:22 44.66582 -73.51864 18855 ft 206 kts 351°
2026-05-03 23:23 44.68009 -73.52030 18855 ft 206 kts 351°
2026-05-03 23:23 44.69444 -73.52194 18855 ft 206 kts 352°
2026-05-03 23:23 44.70883 -73.51930 18854 ft 214 kts 12°
2026-05-03 23:23 44.72284 -73.51198 18857 ft 215 kts 14°
2026-05-03 23:24 44.73689 -73.50475 18858 ft 215 kts 13°
2026-05-03 23:24 44.75100 -73.49753 18859 ft 215 kts 14°
2026-05-03 23:24 44.76505 -73.49028 18857 ft 216 kts 14°
2026-05-03 23:24 44.77917 -73.48300 18858 ft 215 kts 14°
2026-05-03 23:25 44.79309 -73.47581 18858 ft 215 kts 14°
2026-05-03 23:25 44.80692 -73.46868 18858 ft 216 kts 14°
2026-05-03 23:25 44.82104 -73.46140 18858 ft 216 kts 14°
2026-05-03 23:25 44.83516 -73.45411 18858 ft 217 kts 14°
2026-05-03 23:26 44.84930 -73.44680 18858 ft 217 kts 14°
2026-05-03 23:26 44.86348 -73.43947 18858 ft 217 kts 14°
2026-05-03 23:26 44.87765 -73.43214 18859 ft 217 kts 14°
2026-05-03 23:26 44.89183 -73.42481 18858 ft 217 kts 14°
2026-05-03 23:27 44.90595 -73.41750 18858 ft 217 kts 14°
2026-05-03 23:27 44.92016 -73.41013 18858 ft 217 kts 14°
2026-05-03 23:27 44.93440 -73.40276 18859 ft 218 kts 14°
2026-05-03 23:27 44.94845 -73.39548 18859 ft 218 kts 14°
2026-05-03 23:28 44.96268 -73.38810 18859 ft 218 kts 14°
2026-05-03 23:28 44.97694 -73.38069 18858 ft 218 kts 14°
2026-05-03 23:28 44.99119 -73.37329 18857 ft 218 kts 14°
2026-05-03 23:28 45.00547 -73.36587 18857 ft 219 kts 14°
2026-05-03 23:29 45.01977 -73.35843 18857 ft 219 kts 14°
2026-05-03 23:29 45.03406 -73.35100 18846 ft 219 kts 14°
2026-05-03 23:29 45.04834 -73.34357 18846 ft 219 kts 14°
2026-05-03 23:29 45.06263 -73.33613 18847 ft 219 kts 14°
2026-05-03 23:30 45.07686 -73.32872 18846 ft 219 kts 14°
2026-05-03 23:30 45.09116 -73.32126 18846 ft 219 kts 14°
2026-05-03 23:30 45.10551 -73.31377 18846 ft 219 kts 14°
2026-05-03 23:30 45.11974 -73.30635 18846 ft 220 kts 14°
2026-05-03 23:31 45.13412 -73.29885 18846 ft 220 kts 14°
2026-05-03 23:31 45.14847 -73.29134 18846 ft 220 kts 14°
2026-05-03 23:31 45.16299 -73.28375 18847 ft 220 kts 14°
2026-05-03 23:31 45.17738 -73.27624 18846 ft 220 kts 14°
2026-05-03 23:32 45.19171 -73.26874 18846 ft 220 kts 14°
2026-05-03 23:32 45.20608 -73.26121 18840 ft 220 kts 14°
2026-05-03 23:32 45.22047 -73.25367 18836 ft 220 kts 15°
2026-05-03 23:32 45.23483 -73.24616 18836 ft 221 kts 15°
2026-05-03 23:33 45.24924 -73.23859 18837 ft 221 kts 15°
2026-05-03 23:33 45.26368 -73.23102 18837 ft 221 kts 15°
2026-05-03 23:33 45.27809 -73.22345 18837 ft 221 kts 15°
2026-05-03 23:33 45.29251 -73.21587 18844 ft 221 kts 15°
2026-05-03 23:34 45.30695 -73.20830 18837 ft 221 kts 15°
2026-05-03 23:34 45.32116 -73.20082 18826 ft 222 kts 15°
2026-05-03 23:34 45.33598 -73.19301 18827 ft 221 kts 15°
2026-05-03 23:34 45.35041 -73.18543 18827 ft 221 kts 15°
2026-05-03 23:35 45.36491 -73.17779 18827 ft 222 kts 15°
2026-05-03 23:35 45.37885 -73.17043 18833 ft 222 kts 15°
2026-05-03 23:35 45.39324 -73.16285 18828 ft 222 kts 15°
2026-05-03 23:35 45.40779 -73.15519 18826 ft 222 kts 15°
2026-05-03 23:36 45.42244 -73.14745 18826 ft 222 kts 15°
2026-05-03 23:36 45.43691 -73.13981 18826 ft 222 kts 15°
2026-05-03 23:36 45.45141 -73.13215 18826 ft 222 kts 15°
2026-05-03 23:36 45.46561 -73.12464 18831 ft 222 kts 15°
2026-05-03 23:37 45.48009 -73.11698 18827 ft 222 kts 15°
2026-05-03 23:37 45.49455 -73.10933 18830 ft 222 kts 15°
2026-05-03 23:37 45.50894 -73.10171 18832 ft 222 kts 15°
2026-05-03 23:37 45.52343 -73.09403 18826 ft 222 kts 15°
2026-05-03 23:38 45.53801 -73.08629 18817 ft 223 kts 15°
2026-05-03 23:38 45.55250 -73.07861 18817 ft 222 kts 15°
2026-05-03 23:38 45.56699 -73.07093 18817 ft 222 kts 15°
2026-05-03 23:38 45.58145 -73.06324 18817 ft 222 kts 15°
2026-05-03 23:39 45.59600 -73.05552 18816 ft 223 kts 15°
2026-05-03 23:39 45.61053 -73.04779 18816 ft 223 kts 15°
2026-05-03 23:39 45.62507 -73.04005 18818 ft 223 kts 15°
2026-05-03 23:39 45.63964 -73.03230 18817 ft 223 kts 15°
2026-05-03 23:40 45.65417 -73.02457 18817 ft 223 kts 15°
2026-05-03 23:40 45.66864 -73.01685 18817 ft 223 kts 15°
2026-05-03 23:40 45.68330 -73.00905 18818 ft 223 kts 15°
2026-05-03 23:40 45.69315 -73.00379 18818 ft 223 kts 15°
2026-05-03 23:41 45.70770 -72.99602 18816 ft 224 kts 15°
2026-05-03 23:41 45.72201 -72.98839 18816 ft 224 kts 15°
2026-05-03 23:41 45.73683 -72.98047 18815 ft 224 kts 15°
2026-05-03 23:41 45.75140 -72.97268 18818 ft 224 kts 15°
2026-05-03 23:42 45.76602 -72.96487 18818 ft 224 kts 15°
2026-05-03 23:42 45.78062 -72.95705 18818 ft 224 kts 15°
2026-05-03 23:42 45.79522 -72.94923 18818 ft 224 kts 16°
2026-05-03 23:42 45.80970 -72.94148 18815 ft 224 kts 16°
2026-05-03 23:43 45.82430 -72.93365 18818 ft 224 kts 16°
2026-05-03 23:43 45.83897 -72.92580 18818 ft 224 kts 16°
2026-05-03 23:43 45.85360 -72.91794 18816 ft 224 kts 16°
2026-05-03 23:43 45.86823 -72.91008 18818 ft 225 kts 16°
2026-05-03 23:44 45.88286 -72.90223 18818 ft 225 kts 16°
2026-05-03 23:44 45.89749 -72.89436 18817 ft 225 kts 16°
2026-05-03 23:44 45.91198 -72.88586 18815 ft 227 kts 24°
2026-05-03 23:44 45.92435 -72.87122 18815 ft 233 kts 45°
2026-05-03 23:45 45.93459 -72.85308 18819 ft 234 kts 47°
2026-05-03 23:45 45.94484 -72.83491 18817 ft 234 kts 47°
2026-05-03 23:45 45.95515 -72.81669 18818 ft 234 kts 47°
2026-05-03 23:45 45.96544 -72.79849 18817 ft 235 kts 47°
2026-05-03 23:46 45.97576 -72.78022 18817 ft 235 kts 47°
2026-05-03 23:46 45.98604 -72.76202 18819 ft 235 kts 47°
2026-05-03 23:46 45.99622 -72.74397 18817 ft 235 kts 47°
2026-05-03 23:46 46.00661 -72.72553 18819 ft 235 kts 47°
2026-05-03 23:47 46.01684 -72.70739 18817 ft 235 kts 48°
2026-05-03 23:47 46.02719 -72.68900 18817 ft 235 kts 48°
2026-05-03 23:47 46.03737 -72.67088 18817 ft 236 kts 48°
2026-05-03 23:47 46.04771 -72.65251 18817 ft 236 kts 48°
2026-05-03 23:48 46.05799 -72.63420 18817 ft 236 kts 48°
2026-05-03 23:48 46.06835 -72.61576 18819 ft 236 kts 48°
2026-05-03 23:48 46.07867 -72.59736 18817 ft 236 kts 48°
2026-05-03 23:48 46.08897 -72.57901 18819 ft 236 kts 48°
2026-05-03 23:49 46.09936 -72.56047 18819 ft 236 kts 48°
2026-05-03 23:49 46.10967 -72.54205 18813 ft 237 kts 48°
2026-05-03 23:49 46.12002 -72.52356 18815 ft 236 kts 48°
2026-05-03 23:49 46.13035 -72.50509 18807 ft 237 kts 48°
2026-05-03 23:50 46.14067 -72.48662 18817 ft 237 kts 48°
2026-05-03 23:50 46.15087 -72.46835 18815 ft 237 kts 48°
2026-05-03 23:50 46.16129 -72.44970 18815 ft 237 kts 48°
2026-05-03 23:50 46.17165 -72.43113 18816 ft 237 kts 48°
2026-05-03 23:51 46.18194 -72.41266 18816 ft 236 kts 49°
2026-05-03 23:51 46.19226 -72.39412 18817 ft 237 kts 49°
2026-05-03 23:51 46.20259 -72.37557 18817 ft 237 kts 49°
2026-05-03 23:51 46.21292 -72.35702 18814 ft 237 kts 49°
2026-05-03 23:52 46.22326 -72.33841 18817 ft 237 kts 49°
2026-05-03 23:52 46.23363 -72.31975 18816 ft 237 kts 49°
2026-05-03 23:52 46.24268 -72.30345 18817 ft 237 kts 49°
2026-05-03 23:52 46.25296 -72.28492 18818 ft 237 kts 49°
2026-05-03 23:53 46.26328 -72.26632 18817 ft 237 kts 49°
2026-05-03 23:53 46.27354 -72.24780 18817 ft 237 kts 49°
2026-05-03 23:53 46.28391 -72.22908 18817 ft 237 kts 49°
2026-05-03 23:53 46.29423 -72.21042 18817 ft 237 kts 49°
2026-05-03 23:54 46.30452 -72.19182 18817 ft 237 kts 49°
2026-05-03 23:54 46.31482 -72.17318 18817 ft 237 kts 49°
2026-05-03 23:54 46.32511 -72.15455 18817 ft 237 kts 49°
2026-05-03 23:54 46.33542 -72.13588 18817 ft 237 kts 49°
2026-05-03 23:55 46.34570 -72.11722 18818 ft 237 kts 49°
2026-05-03 23:55 46.35597 -72.09860 18816 ft 237 kts 49°
2026-05-03 23:55 46.36626 -72.07992 18817 ft 237 kts 49°
2026-05-03 23:55 46.37653 -72.06125 18817 ft 237 kts 49°
2026-05-03 23:56 46.38695 -72.04232 18817 ft 237 kts 49°
2026-05-03 23:56 46.39722 -72.02363 18817 ft 237 kts 49°
2026-05-03 23:56 46.40762 -72.00469 18816 ft 237 kts 49°
2026-05-03 23:56 46.41776 -71.98622 18818 ft 237 kts 49°
2026-05-03 23:57 46.42805 -71.96749 18817 ft 238 kts 49°
2026-05-03 23:57 46.43832 -71.94872 18817 ft 237 kts 49°
2026-05-03 23:57 46.44861 -71.92995 18817 ft 238 kts 50°
2026-05-03 23:57 46.45890 -71.91116 18817 ft 238 kts 49°
2026-05-03 23:58 46.46918 -71.89238 18816 ft 237 kts 50°
2026-05-03 23:58 46.47945 -71.87362 18817 ft 238 kts 50°
2026-05-03 23:58 46.48972 -71.85483 18815 ft 238 kts 50°
2026-05-03 23:58 46.50004 -71.83598 18816 ft 238 kts 50°
2026-05-03 23:59 46.51034 -71.81718 18818 ft 238 kts 50°
2026-05-03 23:59 46.52066 -71.79838 18816 ft 238 kts 50°
2026-05-03 23:59 46.53084 -71.77983 18818 ft 237 kts 50°
2026-05-03 23:59 46.54131 -71.76081 18817 ft 238 kts 50°
2026-05-04 00:00 46.55165 -71.74206 18813 ft 237 kts 50°
2026-05-04 00:00 46.56211 -71.72310 18809 ft 238 kts 50°
2026-05-04 00:00 46.57234 -71.70459 18817 ft 238 kts 50°
2026-05-04 00:00 46.58269 -71.68590 18815 ft 237 kts 50°
2026-05-04 00:01 46.59306 -71.66720 18815 ft 237 kts 49°
2026-05-04 00:01 46.60343 -71.64852 18817 ft 238 kts 49°
2026-05-04 00:01 46.61382 -71.62984 18815 ft 238 kts 50°
2026-05-04 00:01 46.62422 -71.61114 18817 ft 238 kts 50°
2026-05-04 00:02 46.63386 -71.59383 18816 ft 238 kts 49°
2026-05-04 00:02 46.64432 -71.57506 18815 ft 238 kts 50°
2026-05-04 00:02 46.65479 -71.55634 18816 ft 238 kts 49°
2026-05-04 00:02 46.66525 -71.53765 18818 ft 239 kts 50°
2026-05-04 00:03 46.67573 -71.51892 18818 ft 239 kts 49°
2026-05-04 00:03 46.68822 -71.50352 18811 ft 235 kts 22°
2026-05-04 00:03 46.70402 -71.50010 18814 ft 229 kts 350°
2026-05-04 00:03 46.71957 -71.50470 18817 ft 229 kts 346°
2026-05-04 00:04 46.73323 -71.50768 18819 ft 230 kts 353°
2026-05-04 00:04 46.75003 -71.50641 18819 ft 232 kts
2026-05-04 00:04 46.76569 -71.50182 18817 ft 233 kts 10°
2026-05-04 00:04 46.78160 -71.49726 18812 ft 233 kts
2026-05-04 00:05 46.79760 -71.49333 18817 ft 233 kts
2026-05-04 00:05 46.81360 -71.48947 18816 ft 233 kts
2026-05-04 00:05 46.82961 -71.48550 18818 ft 233 kts
2026-05-04 00:05 46.84567 -71.48148 18719 ft 234 kts
2026-05-04 00:06 46.86176 -71.47746 18475 ft 235 kts
2026-05-04 00:06 46.87787 -71.47345 18223 ft 234 kts
2026-05-04 00:06 46.89392 -71.46946 17974 ft 234 kts
2026-05-04 00:06 46.90920 -71.46564 17737 ft 233 kts
2026-05-04 00:07 46.92517 -71.46164 17487 ft 232 kts
2026-05-04 00:07 46.94101 -71.45770 17240 ft 231 kts
2026-05-04 00:07 46.95691 -71.45372 16989 ft 230 kts
2026-05-04 00:07 46.97264 -71.44978 16817 ft 226 kts
2026-05-04 00:08 46.98772 -71.44598 16813 ft 215 kts
2026-05-04 00:08 47.00216 -71.44281 16799 ft 205 kts 358°
2026-05-04 00:08 47.01526 -71.44833 16803 ft 194 kts 329°
2026-05-04 00:08 47.02309 -71.45436 16803 ft 191 kts 339°
2026-05-04 00:09 47.03965 -71.45258 16807 ft 194 kts 19°
2026-05-04 00:09 47.05122 -71.44481 16807 ft 193 kts 21°
2026-05-04 00:09 47.06273 -71.43766 16804 ft 191 kts 18°
2026-05-04 00:09 47.07506 -71.43068 16801 ft 190 kts 17°
2026-05-04 00:10 47.08735 -71.42379 16803 ft 189 kts 18°
2026-05-04 00:10 47.09969 -71.41682 16802 ft 189 kts 18°
2026-05-04 00:10 47.11196 -71.40984 16803 ft 190 kts 18°
2026-05-04 00:10 47.12432 -71.40283 16809 ft 195 kts 18°
2026-05-04 00:11 47.13708 -71.39557 16817 ft 198 kts 18°
2026-05-04 00:11 47.15005 -71.38821 16820 ft 200 kts 18°
2026-05-04 00:11 47.16314 -71.38076 16820 ft 202 kts 18°
2026-05-04 00:11 47.17629 -71.37329 16822 ft 203 kts 18°
2026-05-04 00:12 47.18500 -71.36833 16821 ft 204 kts 18°
2026-05-04 00:12 47.19738 -71.36127 16819 ft 205 kts 18°
2026-05-04 00:12 47.21511 -71.35116 16821 ft 206 kts 18°
2026-05-04 00:12 47.22835 -71.34362 16819 ft 207 kts 18°
2026-05-04 00:13 47.24180 -71.33596 16822 ft 207 kts 18°
2026-05-04 00:13 47.25054 -71.33097 16822 ft 207 kts 18°
2026-05-04 00:13 47.26293 -71.32389 16820 ft 207 kts 18°
2026-05-04 00:13 47.27563 -71.31663 16820 ft 207 kts 18°
2026-05-04 00:14 47.28912 -71.30892 16821 ft 207 kts 18°
2026-05-04 00:14 47.30263 -71.30121 16821 ft 208 kts 18°
2026-05-04 00:14 47.31517 -71.29403 16821 ft 208 kts 18°
2026-05-04 00:14 47.32868 -71.28630 16820 ft 208 kts 18°
2026-05-04 00:15 47.34216 -71.27858 16820 ft 208 kts 18°
2026-05-04 00:15 47.35565 -71.27086 16821 ft 208 kts 18°
2026-05-04 00:15 47.36913 -71.26313 16821 ft 208 kts 18°
2026-05-04 00:15 47.38266 -71.25537 16820 ft 208 kts 18°
2026-05-04 00:16 47.39612 -71.24764 16820 ft 208 kts 18°
2026-05-04 00:16 47.40963 -71.23988 16820 ft 208 kts 18°
2026-05-04 00:16 47.42298 -71.23221 16820 ft 208 kts 19°
2026-05-04 00:16 47.43667 -71.22434 16820 ft 208 kts 19°
2026-05-04 00:17 47.45013 -71.21660 16820 ft 208 kts 19°
2026-05-04 00:17 47.46366 -71.20882 16820 ft 208 kts 19°
2026-05-04 00:17 47.47691 -71.20136 16815 ft 198 kts 14°
2026-05-04 00:17 47.48918 -71.19541 16800 ft 175 kts 14°
2026-05-04 00:18 47.50005 -71.18934 16796 ft 159 kts 16°
2026-05-04 00:18 47.50995 -71.18338 16801 ft 150 kts 17°
2026-05-04 00:18 47.51930 -71.17794 16798 ft 139 kts 13°
2026-05-04 00:18 47.52811 -71.17309 16797 ft 131 kts 13°
2026-05-04 00:19 47.53635 -71.16835 16805 ft 123 kts 13°
2026-05-04 00:19 47.54468 -71.16342 16578 ft 136 kts 16°
2026-05-04 00:19 47.55357 -71.15763 16344 ft 142 kts 17°
2026-05-04 00:19 47.56274 -71.15219 16117 ft 145 kts 15°
2026-05-04 00:20 47.57254 -71.14643 15893 ft 155 kts 18°
2026-05-04 00:20 47.58286 -71.14017 15685 ft 165 kts 17°
2026-05-04 00:20 47.59379 -71.13392 15472 ft 172 kts 17°
2026-05-04 00:20 47.60549 -71.12994 15262 ft 174 kts 357°
2026-05-04 00:21 47.61770 -71.13023 15042 ft 178 kts
2026-05-04 00:21 47.63019 -71.12917 14814 ft 182 kts
2026-05-04 00:21 47.64292 -71.12803 14579 ft 184 kts 360°
2026-05-04 00:21 47.65578 -71.12714 14342 ft 186 kts
2026-05-04 00:22 47.66880 -71.12594 14098 ft 187 kts
2026-05-04 00:22 47.68181 -71.12477 13854 ft 188 kts
2026-05-04 00:22 47.69488 -71.12362 13608 ft 188 kts
2026-05-04 00:22 47.70782 -71.12248 13364 ft 188 kts
2026-05-04 00:23 47.72106 -71.12131 13112 ft 189 kts
2026-05-04 00:23 47.73433 -71.12016 12859 ft 188 kts
2026-05-04 00:23 47.74718 -71.11906 12613 ft 187 kts
2026-05-04 00:23 47.75990 -71.11804 12369 ft 187 kts
2026-05-04 00:24 47.77314 -71.11694 12116 ft 186 kts
2026-05-04 00:24 47.78642 -71.11572 11859 ft 186 kts
2026-05-04 00:24 47.79928 -71.11460 11606 ft 185 kts
2026-05-04 00:24 47.81170 -71.11316 11353 ft 175 kts
2026-05-04 00:25 47.82373 -71.11191 11085 ft 168 kts
2026-05-04 00:25 47.83522 -71.11103 10828 ft 162 kts
2026-05-04 00:25 47.84561 -71.11024 10671 ft 153 kts
2026-05-04 00:25 47.85597 -71.10935 10497 ft 145 kts
2026-05-04 00:26 47.86579 -71.10853 10323 ft 138 kts
2026-05-04 00:26 47.87521 -71.10696 10101 ft 135 kts
2026-05-04 00:26 47.88455 -71.10497 9857 ft 135 kts
2026-05-04 00:26 47.89338 -71.10244 9663 ft 132 kts
2026-05-04 00:27 47.90257 -71.09929 9431 ft 131 kts 10°
2026-05-04 00:27 47.91121 -71.09571 9243 ft 128 kts 12°
2026-05-04 00:27 47.91961 -71.09165 9037 ft 127 kts 15°
2026-05-04 00:27 47.92779 -71.08681 8813 ft 125 kts 16°
2026-05-04 00:28 47.93591 -71.08217 8559 ft 126 kts 14°
2026-05-04 00:28 47.94409 -71.07826 8359 ft 121 kts 10°
2026-05-04 00:28 47.95231 -71.07522 8134 ft 122 kts
2026-05-04 00:28 47.96031 -71.07253 7941 ft 118 kts
2026-05-04 00:29 47.96845 -71.07017 7717 ft 119 kts
2026-05-04 00:29 47.97648 -71.06734 7508 ft 118 kts
2026-05-04 00:29 47.98453 -71.06506 7272 ft 119 kts
2026-05-04 00:29 47.99250 -71.06200 7065 ft 119 kts 16°
2026-05-04 00:30 47.99986 -71.05570 6824 ft 123 kts 26°
2026-05-04 00:30 48.00702 -71.04937 6672 ft 118 kts 25°
2026-05-04 00:30 48.01437 -71.04357 6440 ft 119 kts 21°
2026-05-04 00:30 48.02176 -71.03834 6253 ft 116 kts 20°
2026-05-04 00:31 48.02913 -71.03311 6032 ft 118 kts 23°
2026-05-04 00:31 48.03628 -71.02725 5823 ft 116 kts 25°
2026-05-04 00:31 48.04338 -71.02105 5579 ft 117 kts 26°
2026-05-04 00:31 48.05052 -71.01566 5355 ft 116 kts 19°
2026-05-04 00:32 48.05792 -71.01124 5129 ft 114 kts 16°
2026-05-04 00:32 48.06551 -71.00737 4877 ft 115 kts 16°
2026-05-04 00:32 48.07300 -71.00347 4668 ft 113 kts 16°
2026-05-04 00:32 48.08046 -70.99923 4436 ft 114 kts 18°
2026-05-04 00:33 48.08792 -70.99522 4216 ft 113 kts 16°
2026-05-04 00:33 48.10285 -70.98921 3761 ft 113 kts
2026-05-04 00:33 48.11039 -70.98691 3561 ft 109 kts 11°
2026-05-04 00:34 48.11794 -70.98427 3293 ft 112 kts 11°
2026-05-04 00:34 48.12542 -70.98182 3101 ft 109 kts 11°
2026-05-04 00:34 48.13302 -70.97926 2850 ft 112 kts 13°
2026-05-04 00:34 48.14043 -70.97625 2634 ft 111 kts 13°
2026-05-04 00:35 48.14820 -70.97369 2372 ft 114 kts
2026-05-04 00:35 48.15588 -70.97175 2155 ft 113 kts
2026-05-04 00:35 48.16380 -70.97020 1922 ft 114 kts
2026-05-04 00:35 48.17153 -70.96901 1709 ft 113 kts
2026-05-04 00:36 48.17942 -70.96816 1486 ft 113 kts
2026-05-04 00:36 48.18723 -70.96747 1261 ft 113 kts
2026-05-04 00:36 48.19399 -70.96769 1763 ft 154 kts 231°
2026-05-04 00:36 48.18815 -70.97808 1707 ft 114 kts 227°
2026-05-04 00:37 48.18181 -70.98485 1205 ft 119 kts 192°
2026-05-04 00:37 48.17433 -70.98448 1740 ft 131 kts 178°
2026-05-04 00:37 48.16592 -70.97783 1846 ft 136 kts 143°
2026-05-04 00:37 40.72902 -73.41710 1846 ft 1 kts 45°